Simultaneous Nadir Overpasses (SNOs) Predictions

Prediction of SNOs between AQUA and NOAA-19 Satellite Orbit:

Table of predicted SNOs for the next 14.0 days since TLE Epoch: 12/20/2019
Index Date (AQUA) Time (AQUA) Lat,Lon (AQUA) SZA (AQUA ) Date (NOAA-19) Time (NOAA-19) Lat,Lon (NOAA-19) SZA (NOAA-19 ) Distance(km) Time Diff (sec)
1 12/21/2019 14:18:50 80.09, -66.10 104.80 12/21/2019 14:18:50 80.09, -66.19 104.80 1.64 0
2 12/23/2019 19:52:33 -80.07, 30.58 75.22 12/23/2019 19:52:07 -80.08, 30.53 75.19 1.46 26
3 12/23/2019 20:42:01 80.09,-161.94 104.82 12/23/2019 20:43:11 80.10,-161.97 104.81 1.23 70
4 12/26/2019 01:26:18 80.07, 127.18 104.76 12/26/2019 01:25:33 80.08, 127.18 104.78 0.92 45
5 12/26/2019 02:15:44 -80.08, -65.27 75.23 12/26/2019 02:16:28 -80.09, -65.34 75.23 2.04 44
6 12/28/2019 07:00:01 -80.06,-136.14 75.33 12/28/2019 06:58:50 -80.06,-136.26 75.29 2.30 71
7 12/28/2019 07:49:29 80.08, 31.30 104.71 12/28/2019 07:49:54 80.09, 31.34 104.71 1.36 25
8 12/30/2019 13:23:12 -80.07, 127.97 75.42 12/30/2019 13:23:11 -80.07, 127.85 75.40 2.16 1
9 01/01/2020 18:56:57 80.08,-135.56 104.46 01/01/2020 18:56:37 80.07,-135.44 104.45 2.54 20




NCC Satellite Simultaneous Nadir Overpasses (SNOs) Prediction Service
